Annapolis, MD

9:25 AM EST on February 23, 2017 (GMT -0500)
Annapolis Naval Academy

Weather History for KNAK - June, 2013

Change the Weather History Date:

Wednesday, June 26, 2013

  Actual Average (KBWI) Record (KBWI)
Temperature  
Mean Temperature 78 °F -  
Max Temperature 86 °F 84 °F 99 °F (1952)
Min Temperature 70 °F 63 °F 52 °F (1979)
Cooling Degree Days 13    
Growing Degree Days 28 (Base 50)    
Moisture  
Dew Point 72 °F    
Average Humidity 82    
Maximum Humidity 97    
Minimum Humidity 63    
Precipitation  
Precipitation 0.31 in - - ()
Sea Level Pressure  
Sea Level Pressure 29.87 in    
Wind  
Wind Speed 4 mph (SSE)    
Max Wind Speed 15 mph    
Max Gust Speed -    
Visibility 8 miles    
Events Rain    
Averages and records for this station are not official NWS values.
T = Trace of Precipitation, MM = Missing Value Source: NWS Daily Summary

Daily Weather History Graph

Daily Weather History Graph

Search for Another Location

Airport or City:

Trip Planner

Search our weather history database for the weather conditions in past years. The results will help you decide how hot, cold, wet, or windy it might be!

Date:

Astronomy

Jun. 26, 2013 Rise Set
Actual Time 5:42 AM EDT 8:35 PM EDT
Civil Twilight 5:09 AM EDT 9:07 PM EDT
Nautical Twilight 4:29 AM EDT 9:48 PM EDT
Astronomical Twilight 3:42 AM EDT 10:34 PM EDT
Moon 10:59 PM EDT (6/26) 9:29 AM EDT (6/26)
Length of Visible Light 15h 57m
Length of Day
14h 53m
Waning Gibbous, 85% of the Moon is Illuminated
Jun 26
Waning Gibbous
Jun 30
Last Quarter
Jul 8
New
Jul 15
First Quarter
Jul 22
Full

Hourly Weather History & Observations

Time (EDT) Temp. Heat Index Dew Point Humidity Pressure Visibility Wind Dir Wind Speed Gust Speed Precip Events Conditions
12:54 AM 72.0 °F - 69.1 °F 91% 29.91 in 10.0 mi Calm Calm - 0.00 in   Clear
1:54 AM 71.1 °F - 70.0 °F 96% 29.90 in 10.0 mi Calm Calm - N/A   Clear
2:54 AM 72.0 °F - 70.0 °F 93% 29.89 in 10.0 mi Calm Calm - N/A   Clear
3:54 AM 70.0 °F - 69.1 °F 97% 29.89 in 10.0 mi Calm Calm - N/A   Clear
4:54 AM 71.1 °F - 69.1 °F 93% 29.91 in 10.0 mi NW 10.4 mph - N/A   Clear
5:54 AM 71.1 °F - 69.1 °F 93% 29.91 in 10.0 mi NW 4.6 mph - N/A   Clear
6:54 AM 73.0 °F - 68.0 °F 84% 29.91 in 10.0 mi Calm Calm - N/A   Clear
7:54 AM 75.0 °F - 70.0 °F 84% 29.92 in 10.0 mi Calm Calm - N/A   Clear
8:54 AM 79.0 °F - 70.0 °F 74% 29.91 in 10.0 mi South 3.5 mph - N/A   Clear
9:54 AM 81.0 °F 84.9 °F 71.1 °F 72% 29.91 in 10.0 mi Variable 3.5 mph - N/A   Clear
10:54 AM 81.0 °F 86.7 °F 75.0 °F 82% 29.90 in 10.0 mi ESE 9.2 mph - N/A   Clear
11:54 AM 84.9 °F 90.1 °F 71.1 °F 63% 29.90 in 10.0 mi SSE 6.9 mph - N/A   Clear
12:54 PM 82.9 °F 90.2 °F 75.0 °F 77% 29.89 in 8.0 mi ESE 11.5 mph - N/A   Clear
1:54 PM 82.9 °F 88.8 °F 73.0 °F 72% 29.87 in 2.5 mi SE 15.0 mph - N/A   Haze
2:03 PM 84.0 °F 90.2 °F 73.0 °F 69% 29.87 in 10.0 mi SE 10.4 mph - N/A   Clear
2:54 PM 84.0 °F 90.2 °F 73.0 °F 69% 29.87 in 10.0 mi SE 10.4 mph - N/A   Clear
3:54 PM 86.0 °F 92.2 °F 72.0 °F 63% 29.85 in 10.0 mi South 10.4 mph - N/A   Clear
4:54 PM 84.9 °F 94.1 °F 75.9 °F 74% 29.81 in 8.0 mi South 13.8 mph - N/A   Clear
5:54 PM 84.9 °F 96.6 °F 78.1 °F 80% 29.81 in 9.0 mi Calm Calm - N/A   Mostly Cloudy
6:38 PM 79.0 °F - 72.0 °F 79% 29.84 in 1.5 mi Calm Calm - 0.07 in Rain Heavy Rain
6:47 PM 78.1 °F - 73.0 °F 84% 29.82 in 0.8 mi East 12.7 mph - 0.17 in Rain Light Rain
6:51 PM 77.0 °F - 73.4 °F 89% 29.82 in 2.5 mi Variable 3.5 mph - 0.17 in Rain Light Rain
6:54 PM 77.0 °F - 73.0 °F 88% 29.83 in 8.0 mi Calm Calm - 0.17 in   Mostly Cloudy
7:54 PM 78.1 °F - 72.0 °F 81% 29.85 in 10.0 mi West 5.8 mph - 0.00 in Rain Light Rain
8:54 PM 75.9 °F - 73.0 °F 91% 29.83 in 10.0 mi West 3.5 mph - 0.00 in   Mostly Cloudy
9:54 PM 75.9 °F - 72.0 °F 87% 29.85 in 9.0 mi NW 3.5 mph - 0.00 in Rain Light Rain
10:54 PM 75.0 °F - 72.0 °F 90% 29.84 in 10.0 mi SSW 3.5 mph - 0.14 in   Mostly Cloudy
11:54 PM 75.0 °F - 71.1 °F 87% 29.83 in 10.0 mi Calm Calm - N/A   Partly Cloudy